This is the latest recevied weather packets stored in our database for station/object SV1JCZ-13. If no packets are shown the sender has not sent any weather packets the latest 10 day(s).
| Time | Temp. | Humidity | Pressure | Rain* | Wind** | Luminosity | Snow |
|---|---|---|---|---|---|---|---|
| 1778341757 | 27.78° C | 40% | 0 hPa | 0 mm | - | - | - |
| 1778341515 | 27.78° C | 42% | 0 hPa | 0 mm | - | - | - |
| 1778341155 | 27.78° C | 45% | 0 hPa | 0 mm | - | - | - |
| 1778340795 | 27.22° C | 40% | 0 hPa | 0 mm | - | - | - |
| 1778340557 | 27.22° C | 39% | 0 hPa | 0 mm | - | - | - |
| 1778340435 | 27.22° C | 40% | 0 hPa | 0 mm | - | - | - |
| 1778340075 | 26.67° C | 40% | 0 hPa | 0 mm | - | - | - |
| 1778339715 | 26.67° C | 40% | 0 hPa | 0 mm | - | - | - |
| 1778339356 | 26.11° C | 42% | 0 hPa | 0 mm | - | - | - |
| 1778338995 | 25.56° C | 42% | 0 hPa | 0 mm | - | - | - |
| 1778338635 | 25.56° C | 43% | 0 hPa | 0 mm | - | - | - |
| 1778338276 | 25.56° C | 42% | 0 hPa | 0 mm | - | - | - |
| 1778338157 | 25.56° C | 42% | 0 hPa | 0 mm | - | - | - |
| 1778337916 | 25° C | 42% | 0 hPa | 0 mm | - | - | - |
| 1778337556 | 23.89° C | 47% | 0 hPa | 0 mm | - | - | - |
| 1778337196 | 23.33° C | 47% | 0 hPa | 0 mm | - | - | - |
| 1778336836 | 23.33° C | 47% | 0 hPa | 0 mm | - | - | - |
| 1778336476 | 23.33° C | 49% | 0 hPa | 0 mm | - | - | - |
| 1778336116 | 23.33° C | 49% | 0 hPa | 0 mm | - | - | - |
| 1778335756 | 23.89° C | 48% | 0 hPa | 0 mm | - | - | - |
| 1778335396 | 24.44° C | 46% | 0 hPa | 0 mm | - | - | - |
| 1778335036 | 24.44° C | 44% | 0 hPa | 0 mm | - | - | - |
| 1778334676 | 25° C | 45% | 0 hPa | 0 mm | - | - | - |
| 1778334557 | 24.44° C | 47% | 0 hPa | 0 mm | - | - | - |
| 1778334316 | 23.89° C | 54% | 0 hPa | 0 mm | - | - | - |
* Rain latest hour (hover to see other rain measurements)
** Current wind speed in m/s (hover to see current wind gust speed)